M I D A S
Marine Information and Data Acquisition System
Tripno 1862 of the Zeeleeuw from 2010-04-15 07:09:10 to 2010-04-15 17:45:54
Back to CruiseResearch ActivitiesStationsMapUnderway DataData graphs

EquipmentUnitsComments
TimeDGPSUTC
LatitudeDGPSDM.mWGS84
LongitudeDGPSDM.mWGS84
SpeedMeteo Stationm/sRelative wind speed
DirectionMeteo StationdegRelative wind direction
TemperatureMeteo Stationdeg CelciusAir temperature
PressureMeteo StationPaAtmospheric pressure
HumidityMeteo Station%Relative humidity
Missing or incorrect values are displayed as -999
Metereological data collected by the RV Zeeleeuw from 2010-04-15 07:04:06 to 2010-04-15 22:15:01
                                                                                    Next 1000 lines
Time Latitude Longitude Speed Direction Temperature Pressure Humidity
2010-04-15 07:04:15 51°13.662 2°55.958 4.7 286 9 102040 33
2010-04-15 07:04:21 51°13.662 2°55.957 3.6 25 9 102030 37
2010-04-15 07:04:26 51°13.663 2°55.955 2.6 285 9 102030 37
2010-04-15 07:04:31 51°13.663 2°55.952 2.8 28 9 102030 36
2010-04-15 07:04:36 51°13.664 2°55.949 1.4 287 9 102030 36
2010-04-15 07:04:41 51°13.665 2°55.946 2.2 21 9 102040 37
2010-04-15 07:04:47 51°13.667 2°55.942 1.1 283 9 102040 37
2010-04-15 07:04:52 51°13.668 2°55.939 0.1 343 9 102040 38
2010-04-15 07:04:58 51°13.67 2°55.934 0.1 77 9 102040 38
2010-04-15 07:05:03 51°13.671 2°55.931 0.1 266 9 102040 37
2010-04-15 07:05:09 51°13.673 2°55.925 1.4 82 9 102040 37
2010-04-15 07:05:14 51°13.674 2°55.92 1.2 269 9 102040 35
2010-04-15 07:05:19 51°13.675 2°55.915 1.5 289 9 102040 35
2010-04-15 07:05:24 51°13.677 2°55.91 3.5 257 9 102040 36
2010-04-15 07:05:30 51°13.679 2°55.903 3 278 9 102040 36
2010-04-15 07:05:34 51°13.68 2°55.898 2.6 263 9 102040 35
2010-04-15 07:05:39 51°13.682 2°55.892 3.8 283 9 102040 35
2010-04-15 07:05:45 51°13.684 2°55.885 3.6 255 9 102040 33
2010-04-15 07:05:50 51°13.685 2°55.879 2.8 287 9 102040 33
2010-04-15 07:05:55 51°13.686 2°55.872 2.6 262 9 102040 36
2010-04-15 07:05:59 51°13.687 2°55.867 1.7 283 9 102040 36
2010-04-15 07:06:05 51°13.688 2°55.859 2 253 9 102040 34
2010-04-15 07:06:10 51°13.688 2°55.851 1.5 279 9 102040 34
2010-04-15 07:06:15 51°13.689 2°55.844 1.5 262 9 102040 33
2010-04-15 07:06:19 51°13.69 2°55.838 0.3 282 9 102040 33
2010-04-15 07:06:24 51°13.69 2°55.831 0.3 253 9 102040 33
2010-04-15 07:06:30 51°13.691 2°55.822 1.4 282 9 102040 33
2010-04-15 07:06:35 51°13.691 2°55.815 2.3 253 9 102040 35
2010-04-15 07:06:39 51°13.691 2°55.809 1.8 283 9 102040 35
2010-04-15 07:06:44 51°13.691 2°55.802 1.3 23 9 102040 33
2010-04-15 07:06:50 51°13.691 2°55.793 1.8 285 9 102040 33
2010-04-15 07:06:55 51°13.691 2°55.786 1.6 247 9 102040 34
2010-04-15 07:06:59 51°13.691 2°55.78 1.6 280 9 102040 34
2010-04-15 07:07:04 51°13.69 2°55.773 1.3 22 9 102040 37
2010-04-15 07:07:09 51°13.69 2°55.767 1.9 284 9 102040 37
2010-04-15 07:07:15 51°13.69 2°55.761 1.6 26 9 102030 33
2010-04-15 07:07:19 51°13.691 2°55.758 1.8 280 9 102030 33
2010-04-15 07:07:24 51°13.691 2°55.756 2.4 28 9.1 102040 38
2010-04-15 07:07:30 51°13.691 2°55.755 3.2 283 9.1 102040 38
2010-04-15 07:07:34 51°13.692 2°55.755 2.7 318 9.1 102040 37
2010-04-15 07:07:39 51°13.692 2°55.757 3 281 9.1 102040 37
2010-04-15 07:07:44 51°13.693 2°55.76 2.4 319 9.1 102040 37
2010-04-15 07:07:49 51°13.695 2°55.763 2.6 277 9.1 102040 37
2010-04-15 07:07:54 51°13.697 2°55.767 2.1 330 9.1 102040 34
2010-04-15 07:07:59 51°13.699 2°55.77 2.3 278 9.1 102040 34
2010-04-15 07:08:04 51°13.701 2°55.773 2.6 327 9.1 102030 37
2010-04-15 07:08:09 51°13.703 2°55.774 2.5 284 9.1 102030 37
2010-04-15 07:08:14 51°13.704 2°55.776 2.1 328 9.2 102030 39
2010-04-15 07:08:19 51°13.704 2°55.776 1.6 278 9.2 102030 39
2010-04-15 07:08:24 51°13.704 2°55.776 1.7 332 9.2 102040 34
2010-04-15 07:08:30 51°13.704 2°55.776 1.6 286 9.2 102040 34
2010-04-15 07:08:35 51°13.703 2°55.776 1.5 338 9.2 102040 33
2010-04-15 07:08:39 51°13.702 2°55.775 2.2 283 9.2 102040 33
2010-04-15 07:08:44 51°13.701 2°55.774 2.8 333 9.2 102030 34
2010-04-15 07:08:50 51°13.699 2°55.772 1.8 277 9.2 102030 34
2010-04-15 07:08:55 51°13.698 2°55.771 2.3 337 9.2 102030 34
2010-04-15 07:08:59 51°13.698 2°55.771 2.2 349 9.2 102030 34
2010-04-15 07:09:04 51°13.699 2°55.771 2.6 333 9.2 102040 39
2010-04-15 07:09:09 51°13.7 2°55.771 2.8 280 9.2 102040 39
2010-04-15 07:09:15 51°13.702 2°55.771 3 340 9.2 102040 36
2010-04-15 07:09:19 51°13.704 2°55.771 3.3 285 9.2 102040 36
2010-04-15 07:09:24 51°13.706 2°55.771 3.5 348 9.2 102040 39
2010-04-15 07:09:29 51°13.709 2°55.77 2.9 353 9.2 102040 39
2010-04-15 07:09:34 51°13.711 2°55.769 3 353 9.2 102030 38
2010-04-15 07:09:39 51°13.713 2°55.768 2.8 354 9.2 102030 38
2010-04-15 07:09:44 51°13.716 2°55.766 2.1 357 9.2 102040 38
2010-04-15 07:09:50 51°13.72 2°55.763 2.3 278 9.2 102040 38
2010-04-15 07:09:54 51°13.723 2°55.76 2 353 9.2 102030 39
2010-04-15 07:09:59 51°13.726 2°55.755 2.8 355 9.2 102030 39
2010-04-15 07:10:04 51°13.73 2°55.751 3.4 357 9.1 102040 34
2010-04-15 07:10:10 51°13.735 2°55.744 2.8 356 9.1 102040 34
2010-04-15 07:10:14 51°13.739 2°55.74 3.1 351 9.1 102030 38
2010-04-15 07:10:19 51°13.744 2°55.734 4.9 353 9.1 102030 38
2010-04-15 07:10:24 51°13.749 2°55.727 6.1 353 9.1 102030 37
2010-04-15 07:10:29 51°13.754 2°55.72 3.8 356 9.1 102030 37
2010-04-15 07:10:34 51°13.76 2°55.712 4.7 349 9.1 102030 37
2010-04-15 07:10:39 51°13.766 2°55.705 4.8 354 9.1 102030 37
2010-04-15 07:10:43 51°13.771 2°55.698 4.5 347 9.1 102040 38
2010-04-15 07:10:49 51°13.777 2°55.688 5.1 281 9.1 102040 38
2010-04-15 07:10:55 51°13.786 2°55.678 3.9 337 9 102040 38
2010-04-15 07:10:59 51°13.79 2°55.671 3.4 281 9 102040 38
2010-04-15 07:11:04 51°13.798 2°55.663 4.8 348 9 102030 35
2010-04-15 07:11:10 51°13.807 2°55.655 6.7 355 9 102030 35
2010-04-15 07:11:15 51°13.814 2°55.647 7 350 9 102040 37
2010-04-15 07:11:19 51°13.822 2°55.638 5.7 351 9 102040 37
2010-04-15 07:11:24 51°13.831 2°55.632 5.3 343 9 102040 38
2010-04-15 07:11:25 51°13.832 2°55.63 7.4 347 8.9 102030 34
2010-04-15 07:11:25 51°13.832 2°55.63 5.1 281 9 102040 38
2010-04-15 07:11:39 51°13.859 2°55.612 6.5 351 8.9 102030 34
2010-04-15 07:11:44 51°13.867 2°55.606 6.6 346 8.9 102030 38
2010-04-15 07:11:49 51°13.876 2°55.601 6.2 284 8.9 102030 38
2010-04-15 07:11:54 51°13.885 2°55.595 6.3 350 8.9 102040 37
2010-04-15 07:11:59 51°13.894 2°55.59 5.7 279 8.9 102040 37
2010-04-15 07:12:03 51°13.901 2°55.583 5.7 353 8.9 102030 38
2010-04-15 07:12:09 51°13.911 2°55.574 5.5 350 8.9 102030 38
2010-04-15 07:12:14 51°13.92 2°55.566 5.2 347 8.8 102030 35
2010-04-15 07:12:19 51°13.929 2°55.559 6.8 279 8.8 102030 35
2010-04-15 07:12:24 51°13.938 2°55.551 5.6 346 8.8 102030 36
2010-04-15 07:12:30 51°13.949 2°55.542 6.3 352 8.8 102030 36
2010-04-15 07:12:35 51°13.958 2°55.534 6.8 351 8.8 102030 35
2010-04-15 07:12:39 51°13.965 2°55.529 6.5 351 8.8 102030 35
2010-04-15 07:12:44 51°13.974 2°55.521 5.5 350 8.8 102040 36
2010-04-15 07:12:50 51°13.985 2°55.513 4.9 346 8.8 102040 36
2010-04-15 07:12:55 51°13.994 2°55.505 5.4 347 8.8 102030 37
2010-04-15 07:12:59 51°14.002 2°55.499 5.5 284 8.8 102030 37
2010-04-15 07:13:04 51°14.011 2°55.493 4.7 344 8.7 102040 38
2010-04-15 07:13:10 51°14.023 2°55.485 6.2 281 8.7 102040 38
2010-04-15 07:13:14 51°14.03 2°55.479 6.5 342 8.7 102040 38
2010-04-15 07:13:19 51°14.04 2°55.473 6.4 351 8.7 102040 38
2010-04-15 07:13:24 51°14.049 2°55.466 5.8 347 8.7 102030 35
2010-04-15 07:13:30 51°14.06 2°55.457 5.1 281 8.7 102030 35
2010-04-15 07:13:34 51°14.068 2°55.452 6.4 348 8.7 102040 35
2010-04-15 07:13:39 51°14.078 2°55.445 6.4 352 8.7 102040 35
2010-04-15 07:13:43 51°14.085 2°55.44 6 340 8.7 102040 36
2010-04-15 07:13:48 51°14.095 2°55.433 7.2 348 8.7 102040 36
2010-04-15 07:13:54 51°14.106 2°55.424 6.2 352 8.7 102030 36
2010-04-15 07:13:59 51°14.116 2°55.416 6.4 284 8.7 102030 36
2010-04-15 07:14:04 51°14.126 2°55.409 6.8 352 8.7 102040 36
2010-04-15 07:14:10 51°14.139 2°55.398 7.3 353 8.7 102040 36
2010-04-15 07:14:14 51°14.147 2°55.391 7.8 348 8.7 102030 35
2010-04-15 07:14:19 51°14.159 2°55.382 6.4 281 8.7 102030 35
2010-04-15 07:14:24 51°14.17 2°55.372 7.3 346 8.6 102040 36
2010-04-15 07:14:30 51°14.185 2°55.359 6.6 281 8.6 102040 36
2010-04-15 07:14:34 51°14.194 2°55.351 8.1 349 8.6 102030 38
2010-04-15 07:14:40 51°14.209 2°55.338 8.2 280 8.6 102030 38
2010-04-15 07:14:45 51°14.222 2°55.327 9.6 352 8.6 102030 36
2010-04-15 07:14:50 51°14.235 2°55.315 9.1 352 8.6 102030 36
2010-04-15 07:14:55 51°14.248 2°55.303 9.5 352 8.6 102040 36
2010-04-15 07:14:59 51°14.258 2°55.292 9.1 350 8.6 102040 36
2010-04-15 07:15:04 51°14.271 2°55.279 9.5 354 8.6 102040 37
2010-04-15 07:15:09 51°14.284 2°55.265 9.7 352 8.6 102040 37
2010-04-15 07:15:14 51°14.297 2°55.252 9 352 8.5 102020 36
2010-04-15 07:15:19 51°14.311 2°55.239 8.6 350 8.5 102020 36
2010-04-15 07:15:24 51°14.324 2°55.224 8.8 351 8.5 102020 37
2010-04-15 07:15:29 51°14.338 2°55.21 9.2 280 8.5 102020 37
2010-04-15 07:15:34 51°14.352 2°55.195 10.4 355 8.5 102020 37
2010-04-15 07:15:39 51°14.366 2°55.181 10.6 353 8.5 102020 37
2010-04-15 07:15:43 51°14.377 2°55.169 10 355 8.5 102020 36
2010-04-15 07:15:48 51°14.391 2°55.154 10.4 353 8.5 102020 36
2010-04-15 07:15:53 51°14.405 2°55.139 9.7 352 8.5 102020 39
2010-04-15 07:15:58 51°14.42 2°55.124 9.2 280 8.5 102020 39
2010-04-15 07:16:03 51°14.434 2°55.108 10.6 352 8.5 102020 36
2010-04-15 07:16:07 51°14.446 2°55.096 10.1 351 8.5 102020 36
2010-04-15 07:16:13 51°14.463 2°55.078 11.1 354 8.4 102020 38
2010-04-15 07:16:18 51°14.478 2°55.062 10.4 353 8.4 102020 38
2010-04-15 07:16:22 51°14.489 2°55.05 9.8 353 8.4 102020 38
2010-04-15 07:16:27 51°14.504 2°55.034 10.2 352 8.4 102020 38
2010-04-15 07:16:31 51°14.516 2°55.021 10.9 351 8.4 102020 38
2010-04-15 07:16:37 51°14.532 2°55.001 10.5 353 8.4 102020 38
2010-04-15 07:16:41 51°14.544 2°54.987 10.3 353 8.4 102020 36
2010-04-15 07:16:46 51°14.558 2°54.969 10.5 355 8.4 102020 36
2010-04-15 07:16:51 51°14.571 2°54.951 9.9 351 8.4 102010 37
2010-04-15 07:16:56 51°14.584 2°54.93 9.5 354 8.4 102010 37
2010-04-15 07:17:01 51°14.598 2°54.911 10.2 351 8.3 102020 37
2010-04-15 07:17:06 51°14.612 2°54.892 10.4 350 8.3 102020 37
2010-04-15 07:17:11 51°14.626 2°54.874 9 350 8.3 102010 39
2010-04-15 07:17:16 51°14.64 2°54.855 8.9 352 8.3 102010 39
2010-04-15 07:17:21 51°14.654 2°54.837 7.9 350 8.3 102020 39
2010-04-15 07:17:26 51°14.669 2°54.819 8.8 278 8.3 102020 39
2010-04-15 07:17:31 51°14.684 2°54.801 9 349 8.3 102010 37
2010-04-15 07:17:36 51°14.699 2°54.784 8.3 281 8.3 102010 37
2010-04-15 07:17:41 51°14.714 2°54.766 9.2 352 8.3 102020 38
2010-04-15 07:17:46 51°14.729 2°54.748 9.1 351 8.3 102020 38
2010-04-15 07:17:51 51°14.744 2°54.73 9.1 349 8.3 102020 39
2010-04-15 07:17:56 51°14.758 2°54.713 9.2 351 8.3 102020 39
2010-04-15 07:18:01 51°14.773 2°54.696 9.6 348 8.3 102020 38
2010-04-15 07:18:06 51°14.789 2°54.68 9.7 350 8.3 102020 38
2010-04-15 07:18:11 51°14.805 2°54.664 9.1 350 8.2 102020 39
2010-04-15 07:18:16 51°14.82 2°54.648 9.4 351 8.2 102020 39
2010-04-15 07:18:21 51°14.836 2°54.632 8.7 350 8.2 102020 36
2010-04-15 07:18:26 51°14.852 2°54.617 9.2 349 8.2 102020 36
2010-04-15 07:18:31 51°14.868 2°54.6 9 349 8.2 102010 38
2010-04-15 07:18:36 51°14.883 2°54.584 8.3 282 8.2 102010 38
2010-04-15 07:18:41 51°14.899 2°54.566 10 350 8.2 102020 36
2010-04-15 07:18:46 51°14.914 2°54.549 9.3 351 8.2 102020 36
2010-04-15 07:18:51 51°14.929 2°54.531 9.2 351 8.2 102020 39
2010-04-15 07:18:56 51°14.944 2°54.515 8.9 351 8.2 102020 39
2010-04-15 07:19:01 51°14.958 2°54.498 10 351 8.2 102020 37
2010-04-15 07:19:06 51°14.973 2°54.481 9.6 351 8.2 102020 37
2010-04-15 07:19:11 51°14.988 2°54.464 8.9 351 8.2 102010 37
2010-04-15 07:19:16 51°15.002 2°54.447 9.4 349 8.2 102010 37
2010-04-15 07:19:21 51°15.017 2°54.429 8.9 350 8.2 102020 39
2010-04-15 07:19:26 51°15.032 2°54.411 9.5 350 8.2 102020 39
2010-04-15 07:19:31 51°15.046 2°54.393 9.5 350 8.2 102020 38
2010-04-15 07:19:36 51°15.06 2°54.375 9.6 350 8.2 102020 38
2010-04-15 07:19:41 51°15.075 2°54.358 10.2 352 8.1 102020 38
2010-04-15 07:19:46 51°15.09 2°54.342 9.4 352 8.1 102020 38
2010-04-15 07:19:51 51°15.105 2°54.325 8.8 350 8.1 102020 36
2010-04-15 07:19:56 51°15.12 2°54.307 9.7 351 8.1 102020 36
2010-04-15 07:20:01 51°15.134 2°54.289 9.7 353 8.1 102020 38
2010-04-15 07:20:06 51°15.148 2°54.269 9 350 8.1 102020 38
2010-04-15 07:20:11 51°15.162 2°54.249 9 352 8.1 102020 39
2010-04-15 07:20:16 51°15.176 2°54.23 8.2 351 8.1 102020 39
2010-04-15 07:20:21 51°15.19 2°54.209 8.4 349 8.1 102020 39
2010-04-15 07:20:26 51°15.204 2°54.19 8.8 351 8.1 102020 39
2010-04-15 07:20:31 51°15.218 2°54.169 8.9 350 8.1 102010 36
2010-04-15 07:20:36 51°15.232 2°54.15 9.7 349 8.1 102010 36
2010-04-15 07:20:41 51°15.247 2°54.132 9.3 351 8.1 102020 38
2010-04-15 07:20:46 51°15.261 2°54.113 10.1 349 8.1 102020 38
2010-04-15 07:20:51 51°15.276 2°54.095 8.9 350 8.1 102020 38
2010-04-15 07:20:56 51°15.291 2°54.076 9.3 349 8.1 102020 38
2010-04-15 07:21:01 51°15.305 2°54.057 9.5 350 8.1 102020 36
2010-04-15 07:21:06 51°15.319 2°54.038 9 349 8.1 102020 36
2010-04-15 07:21:11 51°15.333 2°54.018 8.9 352 8.1 102020 39
2010-04-15 07:21:16 51°15.347 2°53.998 9.4 351 8.1 102020 39
2010-04-15 07:21:21 51°15.361 2°53.978 8.8 351 8.1 102020 38
2010-04-15 07:21:26 51°15.375 2°53.957 9.9 351 8.1 102020 38
2010-04-15 07:21:31 51°15.389 2°53.937 9.3 350 8.1 102020 37
2010-04-15 07:21:36 51°15.403 2°53.916 9.4 351 8.1 102020 37
2010-04-15 07:21:41 51°15.417 2°53.896 9.8 350 8.1 102020 38
2010-04-15 07:21:46 51°15.431 2°53.875 9 280 8.1 102020 38
2010-04-15 07:21:51 51°15.446 2°53.856 8.8 349 8.1 102020 37
2010-04-15 07:21:56 51°15.46 2°53.836 9.5 349 8.1 102020 37
2010-04-15 07:22:01 51°15.474 2°53.817 10 349 8 102020 37
2010-04-15 07:22:06 51°15.49 2°53.799 9.7 282 8 102020 37
2010-04-15 07:22:11 51°15.505 2°53.781 9.4 349 8.1 102010 37
2010-04-15 07:22:16 51°15.52 2°53.763 9.1 280 8.1 102010 37
2010-04-15 07:22:21 51°15.535 2°53.745 8.9 352 8.1 102020 39
2010-04-15 07:22:26 51°15.55 2°53.727 9 280 8.1 102020 39
2010-04-15 07:22:31 51°15.565 2°53.71 9 349 8 102020 37
2010-04-15 07:22:36 51°15.58 2°53.692 8.5 351 8 102020 37
2010-04-15 07:22:41 51°15.595 2°53.674 9.5 348 8 102020 37
2010-04-15 07:22:46 51°15.611 2°53.656 9 279 8 102020 37
2010-04-15 07:22:51 51°15.626 2°53.638 8.6 349 8 102020 39
2010-04-15 07:22:56 51°15.641 2°53.621 9.8 279 8 102020 39
2010-04-15 07:23:01 51°15.656 2°53.604 9.9 349 8.1 102020 38
2010-04-15 07:23:06 51°15.672 2°53.587 9.3 279 8.1 102020 38
2010-04-15 07:23:11 51°15.687 2°53.57 9.1 351 8 102020 39
2010-04-15 07:23:16 51°15.703 2°53.555 9.7 349 8 102020 39
2010-04-15 07:23:21 51°15.719 2°53.538 9.6 350 8 102020 36
2010-04-15 07:23:26 51°15.735 2°53.523 9 280 8 102020 36
2010-04-15 07:23:31 51°15.751 2°53.507 9.7 348 8 102020 38
2010-04-15 07:23:35 51°15.764 2°53.495 9.7 350 8 102020 38
2010-04-15 07:23:41 51°15.783 2°53.476 10.7 349 8 102020 36
2010-04-15 07:23:46 51°15.798 2°53.46 10 350 8 102020 36
2010-04-15 07:23:51 51°15.815 2°53.445 9.1 348 8 102020 39
2010-04-15 07:23:56 51°15.831 2°53.429 10.7 280 8 102020 39
2010-04-15 07:24:01 51°15.847 2°53.415 10.9 347 8 102020 37
2010-04-15 07:24:06 51°15.863 2°53.4 10.1 350 8 102020 37
2010-04-15 07:24:11 51°15.879 2°53.386 10.3 350 8 102000 38
2010-04-15 07:24:16 51°15.895 2°53.372 9.5 347 8 102000 38
2010-04-15 07:24:21 51°15.912 2°53.359 9.5 349 8 102020 36
2010-04-15 07:24:26 51°15.928 2°53.345 9.8 284 8 102020 36
2010-04-15 07:24:31 51°15.945 2°53.332 9.9 347 8 102010 39
2010-04-15 07:24:36 51°15.961 2°53.319 10.7 348 8 102010 39
2010-04-15 07:24:41 51°15.977 2°53.306 9.5 347 7.9 102020 39
2010-04-15 07:24:46 51°15.994 2°53.293 9.7 284 7.9 102020 39
2010-04-15 07:24:51 51°16.01 2°53.28 10.8 346 8 102020 37
2010-04-15 07:24:55 51°16.024 2°53.27 10.8 282 8 102020 37
2010-04-15 07:25:01 51°16.044 2°53.256 10.1 346 8 102010 37
2010-04-15 07:25:06 51°16.06 2°53.244 10.5 347 8 102010 37
2010-04-15 07:25:11 51°16.077 2°53.232 10.4 347 8 102020 37
2010-04-15 07:25:15 51°16.09 2°53.223 11 279 8 102020 37
2010-04-15 07:25:21 51°16.11 2°53.208 10 348 8 102010 38
2010-04-15 07:25:26 51°16.126 2°53.196 9.9 282 8 102010 38
2010-04-15 07:25:31 51°16.143 2°53.183 10.5 345 8 102020 36
2010-04-15 07:25:35 51°16.156 2°53.173 10.3 281 8 102020 36
2010-04-15 07:25:41 51°16.176 2°53.159 9.7 348 8 102000 36
2010-04-15 07:25:46 51°16.192 2°53.146 10.3 348 8 102000 36
2010-04-15 07:25:51 51°16.209 2°53.133 10.4 347 8 102020 38
2010-04-15 07:25:55 51°16.222 2°53.123 9.7 280 8 102020 38
2010-04-15 07:26:01 51°16.242 2°53.108 10.4 346 7.9 102020 39
2010-04-15 07:26:06 51°16.258 2°53.095 9.6 345 7.9 102020 39
2010-04-15 07:26:11 51°16.274 2°53.082 9.5 344 7.9 102010 38
2010-04-15 07:26:15 51°16.287 2°53.072 10.1 282 7.9 102010 38
2010-04-15 07:26:21 51°16.307 2°53.056 9.3 344 8 102020 35
2010-04-15 07:26:26 51°16.323 2°53.043 9.6 347 8 102020 35
2010-04-15 07:26:31 51°16.339 2°53.031 10.3 345 8 102020 39
2010-04-15 07:26:35 51°16.352 2°53.02 10.7 278 8 102020 39
2010-04-15 07:26:41 51°16.372 2°53.007 10.2 348 8 102020 38
2010-04-15 07:26:47 51°16.392 2°52.994 10.3 348 8 102020 38
2010-04-15 07:26:51 51°16.405 2°52.986 9.9 344 8 102020 35
2010-04-15 07:26:55 51°16.419 2°52.977 11.2 347 8 102020 35
2010-04-15 07:27:01 51°16.439 2°52.964 10.9 347 8 102010 38
2010-04-15 07:27:06 51°16.455 2°52.953 10.4 282 8 102010 38
2010-04-15 07:27:11 51°16.472 2°52.942 11.2 346 8 102020 38
2010-04-15 07:27:15 51°16.485 2°52.934 10.7 282 8 102020 38
2010-04-15 07:27:21 51°16.505 2°52.922 10.5 347 8 102010 38
2010-04-15 07:27:26 51°16.522 2°52.911 11 279 8 102010 38
2010-04-15 07:27:31 51°16.539 2°52.9 11.4 348 7.9 102010 36
2010-04-15 07:27:35 51°16.552 2°52.892 11 348 7.9 102010 36
2010-04-15 07:27:41 51°16.572 2°52.878 11 348 8 102010 38
2010-04-15 07:27:46 51°16.588 2°52.866 10.4 280 8 102010 38
2010-04-15 07:27:51 51°16.605 2°52.856 10.1 346 7.9 102010 39
2010-04-15 07:27:55 51°16.619 2°52.847 10.9 347 7.9 102010 39
2010-04-15 07:28:01 51°16.638 2°52.836 11.1 346 7.9 102010 38
2010-04-15 07:28:06 51°16.655 2°52.826 10 348 7.9 102010 38
2010-04-15 07:28:11 51°16.672 2°52.817 10.7 347 7.9 102010 38
2010-04-15 07:28:15 51°16.685 2°52.809 10.3 281 7.9 102010 38
2010-04-15 07:28:21 51°16.705 2°52.798 10.2 345 7.9 102010 37
2010-04-15 07:28:26 51°16.722 2°52.789 10.1 278 7.9 102010 37
2010-04-15 07:28:31 51°16.739 2°52.781 10.6 346 7.9 102010 38
2010-04-15 07:28:35 51°16.752 2°52.773 9.5 278 7.9 102010 38
2010-04-15 07:28:41 51°16.772 2°52.764 10.7 346 7.9 102020 39
2010-04-15 07:28:46 51°16.788 2°52.755 11.1 283 7.9 102020 39
2010-04-15 07:28:51 51°16.804 2°52.746 11.4 348 7.9 102010 37
2010-04-15 07:28:56 51°16.82 2°52.737 10.8 282 7.9 102010 37
2010-04-15 07:29:01 51°16.836 2°52.728 9.9 347 7.9 102010 37
2010-04-15 07:29:06 51°16.852 2°52.719 9 282 7.9 102010 37
2010-04-15 07:29:11 51°16.869 2°52.712 11.6 344 7.9 102020 38
2010-04-15 07:29:16 51°16.885 2°52.705 10.2 280 7.9 102020 38
2010-04-15 07:29:21 51°16.902 2°52.699 10.7 345 7.9 102020 38
2010-04-15 07:29:26 51°16.918 2°52.692 10.6 282 7.9 102020 38
2010-04-15 07:29:31 51°16.934 2°52.687 10.1 345 7.9 102020 35
2010-04-15 07:29:36 51°16.951 2°52.681 9.9 282 7.9 102020 35
2010-04-15 07:29:41 51°16.968 2°52.676 10.8 343 7.9 102010 39
2010-04-15 07:29:46 51°16.984 2°52.67 9.8 284 7.9 102010 39
2010-04-15 07:29:51 51°17.001 2°52.666 10.6 343 7.9 102020 38
2010-04-15 07:29:55 51°17.015 2°52.662 10.7 281 7.9 102020 38
2010-04-15 07:30:01 51°17.035 2°52.656 10.7 344 8 102020 39
2010-04-15 07:30:06 51°17.052 2°52.65 10.5 346 8 102020 39
2010-04-15 07:30:11 51°17.069 2°52.645 10.1 344 8 102020 38
2010-04-15 07:30:16 51°17.086 2°52.639 10.4 345 8 102020 38
2010-04-15 07:30:21 51°17.103 2°52.634 10.1 345 7.9 102020 36
2010-04-15 07:30:26 51°17.12 2°52.629 10.4 347 7.9 102020 36
2010-04-15 07:30:31 51°17.136 2°52.624 9.3 345 7.9 102020 37
2010-04-15 07:30:36 51°17.153 2°52.619 11 280 7.9 102020 37
2010-04-15 07:30:41 51°17.17 2°52.615 10.6 344 8 102020 39
2010-04-15 07:30:46 51°17.186 2°52.609 11.1 279 8 102020 39
2010-04-15 07:30:51 51°17.203 2°52.604 10.5 345 8 102020 38
2010-04-15 07:30:56 51°17.22 2°52.599 12.2 278 8 102020 38
2010-04-15 07:31:01 51°17.237 2°52.593 10.4 346 8 102020 38
2010-04-15 07:31:06 51°17.253 2°52.587 10.4 280 8 102020 38
2010-04-15 07:31:11 51°17.27 2°52.58 11 342 8 102020 37
2010-04-15 07:31:16 51°17.287 2°52.574 11.2 285 8 102020 37
2010-04-15 07:31:21 51°17.304 2°52.568 10.1 344 7.9 102020 37
2010-04-15 07:31:26 51°17.32 2°52.561 10.6 281 7.9 102020 37
2010-04-15 07:31:31 51°17.337 2°52.554 11 346 8 102020 39
2010-04-15 07:31:35 51°17.35 2°52.548 10.8 278 8 102020 39
2010-04-15 07:32:01 51°17.439 2°52.529 11.4 340 8 102020 37
2010-04-15 07:32:28 51°17.529 2°52.539 11.9 339 8 102030 36
2010-04-15 07:32:47 51°17.592 2°52.552 11.3 339 8 102030 36
2010-04-15 07:33:11 51°17.672 2°52.569 10.7 339 8 102020 37
2010-04-15 07:33:16 51°17.688 2°52.572 11.2 340 8 102020 37
2010-04-15 07:33:16 51°17.688 2°52.572 11.2 340 8 102020 37
2010-04-15 07:33:29 51°17.732 2°52.58 11.5 338 8 102030 38
2010-04-15 07:33:34 51°17.748 2°52.583 12 282 8 102020 37
2010-04-15 07:33:56 51°17.822 2°52.594 11.6 339 8 102020 38
2010-04-15 07:35:05 51°18.055 2°52.634 10.9 287 8 102020 36
2010-04-15 07:35:10 51°18.072 2°52.639 11 337 8.1 102020 37
2010-04-15 07:35:15 51°18.089 2°52.644 11.3 285 8.1 102020 37
2010-04-15 07:35:20 51°18.105 2°52.649 11.9 336 8.1 102020 36
2010-04-15 07:35:25 51°18.122 2°52.655 12 285 8.1 102020 36
2010-04-15 07:35:30 51°18.138 2°52.661 12 336 8.1 102010 37
2010-04-15 07:35:35 51°18.154 2°52.669 11.1 283 8.1 102010 37
2010-04-15 07:35:40 51°18.17 2°52.677 10.7 333 8.1 102030 38
2010-04-15 07:35:46 51°18.188 2°52.691 12.4 283 8.1 102030 38
2010-04-15 07:35:50 51°18.2 2°52.7 10.6 333 8.1 102020 37
2010-04-15 07:35:55 51°18.214 2°52.713 11.3 280 8.1 102020 37
2010-04-15 07:36:00 51°18.228 2°52.725 10.8 330 8.1 102020 38
2010-04-15 07:36:06 51°18.245 2°52.743 11.1 283 8.1 102020 38
2010-04-15 07:36:10 51°18.256 2°52.755 12.6 329 8.1 102020 38
2010-04-15 07:36:15 51°18.269 2°52.77 10.8 277 8.1 102020 38
2010-04-15 07:36:20 51°18.282 2°52.786 12.1 329 8.1 102010 37
2010-04-15 07:36:26 51°18.297 2°52.807 11.8 284 8.1 102010 37
2010-04-15 07:36:30 51°18.307 2°52.821 11.5 328 8.1 102010 37
2010-04-15 07:36:35 51°18.319 2°52.838 11 280 8.1 102010 37
2010-04-15 07:36:40 51°18.33 2°52.857 11.6 328 8.1 102020 39
2010-04-15 07:36:45 51°18.342 2°52.876 11.7 282 8.1 102020 39
2010-04-15 07:36:50 51°18.353 2°52.896 10.6 326 8.1 102020 36
2010-04-15 07:36:55 51°18.363 2°52.916 11.3 287 8.1 102020 36
2010-04-15 07:37:00 51°18.373 2°52.936 11.7 325 8.1 102010 37
2010-04-15 07:37:05 51°18.384 2°52.957 12.6 283 8.1 102010 37
2010-04-15 07:37:10 51°18.393 2°52.979 11.5 324 8.1 102010 38
2010-04-15 07:37:15 51°18.402 2°53 10.6 282 8.1 102010 38
2010-04-15 07:37:20 51°18.411 2°53.022 11.8 325 8.1 102010 39
2010-04-15 07:37:25 51°18.42 2°53.044 11.3 283 8.1 102010 39
2010-04-15 07:37:30 51°18.429 2°53.066 12.1 324 8.1 102010 37
2010-04-15 07:37:35 51°18.437 2°53.088 11.4 278 8.1 102010 37
2010-04-15 07:37:40 51°18.446 2°53.111 10.5 324 8.1 102000 37
2010-04-15 07:37:45 51°18.454 2°53.133 10.6 281 8.1 102000 37
2010-04-15 07:37:50 51°18.462 2°53.156 11.9 323 8.1 102010 38
2010-04-15 07:37:55 51°18.471 2°53.178 13.1 283 8.1 102010 38
2010-04-15 07:38:00 51°18.48 2°53.2 12.1 323 8.1 101990 36
2010-04-15 07:38:06 51°18.49 2°53.227 12.4 284 8.1 101990 36
2010-04-15 07:38:10 51°18.495 2°53.246 11.7 322 8.1 102010 37
2010-04-15 07:38:15 51°18.504 2°53.268 11.3 282 8.1 102010 37
2010-04-15 07:38:20 51°18.511 2°53.292 11.1 324 8.1 102000 39
2010-04-15 07:38:26 51°18.522 2°53.319 11.2 278 8.1 102000 39
2010-04-15 07:38:30 51°18.527 2°53.338 12.1 324 8.1 102000 36
2010-04-15 07:38:35 51°18.536 2°53.361 11.4 281 8.1 102000 36
2010-04-15 07:38:40 51°18.543 2°53.384 10.9 323 8.1 102010 36
2010-04-15 07:38:45 51°18.552 2°53.406 12 281 8.1 102010 36
2010-04-15 07:38:50 51°18.559 2°53.429 12.1 324 8.1 102000 36
2010-04-15 07:38:55 51°18.567 2°53.452 11.7 279 8.1 102000 36
2010-04-15 07:39:00 51°18.575 2°53.475 11.9 326 8.1 102010 36
2010-04-15 07:39:05 51°18.584 2°53.498 11.1 282 8.1 102010 36
2010-04-15 07:39:10 51°18.592 2°53.521 12 324 8.1 102000 36
2010-04-15 07:39:15 51°18.601 2°53.544 12.2 286 8.1 102000 36
2010-04-15 07:39:20 51°18.608 2°53.567 11.6 327 8.1 102000 37
2010-04-15 07:39:25 51°18.617 2°53.589 11.1 284 8.1 102000 37
2010-04-15 07:39:30 51°18.625 2°53.612 11 324 8.1 102000 36
2010-04-15 07:39:35 51°18.633 2°53.635 10.8 282 8.1 102000 36
2010-04-15 07:39:40 51°18.641 2°53.659 10.7 324 8.1 102010 35
2010-04-15 07:39:45 51°18.649 2°53.682 11.8 283 8.1 102010 35
2010-04-15 07:39:50 51°18.656 2°53.706 12.1 324 8.1 102000 37
2010-04-15 07:39:55 51°18.664 2°53.729 11.4 283 8.1 102000 37
2010-04-15 07:40:00 51°18.671 2°53.753 11.8 325 8.1 102020 39
2010-04-15 07:40:05 51°18.679 2°53.776 11.2 278 8.1 102020 39
2010-04-15 07:40:10 51°18.687 2°53.799 11.2 325 8.1 102010 36
2010-04-15 07:40:15 51°18.694 2°53.823 11.5 287 8.1 102010 36
2010-04-15 07:40:20 51°18.702 2°53.846 11.4 323 8.1 102010 37
2010-04-15 07:40:26 51°18.711 2°53.874 11.9 286 8.1 102010 37
2010-04-15 07:40:30 51°18.717 2°53.893 10.8 325 8.1 102010 37
2010-04-15 07:40:35 51°18.725 2°53.916 11.2 282 8.1 102010 37
2010-04-15 07:40:40 51°18.732 2°53.939 12.3 326 8.1 102000 37
2010-04-15 07:40:46 51°18.742 2°53.967 11.4 286 8.1 102000 37
2010-04-15 07:40:50 51°18.748 2°53.986 12.2 324 8.1 102000 39
2010-04-15 07:40:55 51°18.755 2°54.01 12.2 278 8.1 102000 39
2010-04-15 07:41:00 51°18.763 2°54.033 11.7 324 8.1 102010 36
2010-04-15 07:41:05 51°18.771 2°54.056 11.6 280 8.1 102010 36
2010-04-15 07:41:10 51°18.778 2°54.08 11.8 323 8.1 102010 38
2010-04-15 07:41:15 51°18.786 2°54.103 11.7 282 8.1 102010 38
2010-04-15 07:41:20 51°18.793 2°54.126 12.1 324 8.1 102000 38
2010-04-15 07:41:25 51°18.801 2°54.15 11.3 281 8.1 102000 38
2010-04-15 07:41:30 51°18.809 2°54.173 11.1 327 8.1 102010 37
2010-04-15 07:41:35 51°18.816 2°54.197 11.4 282 8.1 102010 37
2010-04-15 07:41:40 51°18.824 2°54.22 10.9 327 8.1 101990 37
2010-04-15 07:41:45 51°18.832 2°54.244 11 280 8.1 101990 37
2010-04-15 07:41:50 51°18.84 2°54.268 11.8 324 8.1 102000 36
2010-04-15 07:41:55 51°18.847 2°54.292 12 284 8.1 102000 36
2010-04-15 07:42:00 51°18.854 2°54.316 10.9 324 8.1 102000 38
2010-04-15 07:42:05 51°18.86 2°54.341 11.1 280 8.1 102000 38
2010-04-15 07:42:10 51°18.867 2°54.365 10.5 324 8.1 102010 38
2010-04-15 07:42:15 51°18.873 2°54.39 11.8 278 8.1 102010 38
2010-04-15 07:42:20 51°18.879 2°54.415 11.5 324 8.1 102000 37
2010-04-15 07:42:26 51°18.887 2°54.444 10.4 287 8.1 102000 37
2010-04-15 07:42:30 51°18.892 2°54.464 12.2 325 8.1 102010 38
2010-04-15 07:42:35 51°18.899 2°54.489 11.9 277 8.1 102010 38
2010-04-15 07:42:40 51°18.905 2°54.513 11.6 325 8.1 102010 37
2010-04-15 07:42:46 51°18.913 2°54.543 11.2 280 8.1 102010 37
2010-04-15 07:42:50 51°18.918 2°54.563 12.2 323 8.1 102010 35
2010-04-15 07:42:55 51°18.924 2°54.587 12.2 283 8.1 102010 35
2010-04-15 07:43:00 51°18.931 2°54.612 11.5 324 8.1 102010 36
2010-04-15 07:43:06 51°18.938 2°54.642 11.2 283 8.1 102010 36
2010-04-15 07:43:10 51°18.943 2°54.662 11.3 323 8.1 102010 38
2010-04-15 07:43:15 51°18.95 2°54.686 10.8 281 8.1 102010 38
2010-04-15 07:43:20 51°18.955 2°54.711 10.5 324 8.1 102000 38
2010-04-15 07:43:25 51°18.963 2°54.735 9.7 281 8.1 102000 38
2010-04-15 07:43:30 51°18.968 2°54.759 10.4 324 8.1 102020 38
2010-04-15 07:43:35 51°18.975 2°54.783 10.4 284 8.1 102020 38
2010-04-15 07:43:40 51°18.981 2°54.808 10 324 8.1 102000 36
2010-04-15 07:43:45 51°18.988 2°54.832 10.8 285 8.1 102000 36
2010-04-15 07:43:50 51°18.995 2°54.856 11.5 326 8.1 102020 38
2010-04-15 07:43:55 51°19.001 2°54.881 12.4 279 8.1 102020 38
2010-04-15 07:44:00 51°19.008 2°54.905 11.4 325 8.2 102010 36
2010-04-15 07:44:05 51°19.014 2°54.929 11 287 8.2 102010 36
2010-04-15 07:44:10 51°19.02 2°54.954 12 324 8.2 102020 36
2010-04-15 07:44:15 51°19.026 2°54.978 10.9 281 8.2 102020 36
2010-04-15 07:44:20 51°19.033 2°55.002 11.7 326 8.2 102010 36
2010-04-15 07:44:25 51°19.039 2°55.026 10.9 286 8.2 102010 36
2010-04-15 07:44:30 51°19.046 2°55.05 10.8 323 8.1 102000 36
2010-04-15 07:44:35 51°19.051 2°55.075 10.9 280 8.1 102000 36
2010-04-15 07:44:40 51°19.058 2°55.099 10.4 326 8.1 102010 38
2010-04-15 07:44:45 51°19.064 2°55.123 10.6 286 8.1 102010 38
2010-04-15 07:44:50 51°19.07 2°55.148 10.2 325 8.1 102010 38
2010-04-15 07:44:55 51°19.077 2°55.172 10.8 281 8.1 102010 38
2010-04-15 07:45:00 51°19.083 2°55.196 11.4 326 8.1 102010 36
2010-04-15 07:45:06 51°19.091 2°55.225 12.3 281 8.1 102010 36
2010-04-15 07:45:10 51°19.096 2°55.244 11.3 324 8.2 102010 37
2010-04-15 07:45:15 51°19.102 2°55.268 10.9 286 8.2 102010 37
2010-04-15 07:45:20 51°19.108 2°55.293 11.5 324 8.2 102010 37
2010-04-15 07:45:25 51°19.115 2°55.317 11.7 284 8.2 102010 37
2010-04-15 07:45:30 51°19.121 2°55.341 11.8 324 8.2 102020 37
2010-04-15 07:45:35 51°19.128 2°55.365 12.3 283 8.2 102020 37
2010-04-15 07:45:40 51°19.134 2°55.39 11.2 325 8.1 102010 37
2010-04-15 07:45:45 51°19.14 2°55.414 12.7 279 8.1 102010 37
2010-04-15 07:45:50 51°19.147 2°55.438 11.5 322 8.2 102020 37
2010-04-15 07:45:55 51°19.154 2°55.462 10.6 282 8.2 102020 37
2010-04-15 07:46:00 51°19.16 2°55.487 11.3 324 8.2 102010 37
2010-04-15 07:46:05 51°19.166 2°55.511 10.5 280 8.2 102010 37
2010-04-15 07:46:10 51°19.173 2°55.535 11.2 323 8.1 102010 36
2010-04-15 07:46:15 51°19.179 2°55.56 11.6 281 8.1 102010 36
2010-04-15 07:46:20 51°19.186 2°55.585 11.1 324 8.1 102010 37
2010-04-15 07:46:25 51°19.192 2°55.61 10 284 8.1 102010 37
2010-04-15 07:46:30 51°19.199 2°55.634 10.9 324 8.2 102000 37
2010-04-15 07:46:35 51°19.205 2°55.659 11.2 287 8.2 102000 37
2010-04-15 07:46:40 51°19.212 2°55.683 11.3 325 8.2 102010 36
2010-04-15 07:46:45 51°19.218 2°55.707 11 279 8.2 102010 36
2010-04-15 07:46:50 51°19.224 2°55.731 10.9 323 8.2 102010 37
2010-04-15 07:46:55 51°19.231 2°55.755 10.5 280 8.2 102010 37
2010-04-15 07:47:00 51°19.237 2°55.78 11.1 322 8.2 102010 39
2010-04-15 07:47:06 51°19.245 2°55.809 11.5 280 8.2 102010 39
2010-04-15 07:47:10 51°19.25 2°55.829 10.4 324 8.2 102010 37
2010-04-15 07:47:15 51°19.257 2°55.853 10.8 285 8.2 102010 37
2010-04-15 07:47:20 51°19.263 2°55.877 10.7 324 8.2 102010 38
2010-04-15 07:47:26 51°19.271 2°55.905 12.1 285 8.2 102010 38
2010-04-15 07:47:30 51°19.276 2°55.925 11.3 324 8.2 102020 38
2010-04-15 07:47:35 51°19.282 2°55.949 10.9 283 8.2 102020 38
2010-04-15 07:47:40 51°19.289 2°55.974 10.9 324 8.2 102010 37
2010-04-15 07:47:45 51°19.295 2°55.998 11.4 278 8.2 102010 37
2010-04-15 07:47:50 51°19.301 2°56.022 11.4 324 8.2 102020 36
2010-04-15 07:47:55 51°19.308 2°56.046 11.7 277 8.2 102020 36
2010-04-15 07:48:00 51°19.313 2°56.07 10.1 323 8.2 102020 38
2010-04-15 07:48:05 51°19.32 2°56.094 10.3 285 8.2 102020 38
2010-04-15 07:48:10 51°19.326 2°56.118 9.9 323 8.2 102010 37
2010-04-15 07:48:15 51°19.332 2°56.142 10.3 281 8.2 102010 37
2010-04-15 07:48:20 51°19.338 2°56.167 10.7 322 8.2 102000 37
2010-04-15 07:48:25 51°19.343 2°56.192 10.4 282 8.2 102000 37
2010-04-15 07:48:30 51°19.347 2°56.217 11.3 322 8.2 102020 38
2010-04-15 07:48:35 51°19.353 2°56.242 10.8 281 8.2 102020 38
2010-04-15 07:48:40 51°19.358 2°56.266 11.2 322 8.2 102020 38
2010-04-15 07:48:45 51°19.363 2°56.291 11.5 284 8.2 102020 38
2010-04-15 07:48:50 51°19.368 2°56.316 11.3 322 8.2 102010 36
2010-04-15 07:48:55 51°19.373 2°56.341 11 283 8.2 102010 36
2010-04-15 07:49:00 51°19.378 2°56.366 10.4 323 8.2 102020 37
2010-04-15 07:49:05 51°19.383 2°56.391 10.2 281 8.2 102020 37
2010-04-15 07:49:10 51°19.388 2°56.416 12.7 320 8.2 102010 37
2010-04-15 07:49:15 51°19.394 2°56.441 9.9 282 8.2 102010 37
2010-04-15 07:49:20 51°19.398 2°56.467 11 320 8.2 102020 39
2010-04-15 07:49:26 51°19.405 2°56.496 11.7 282 8.2 102020 39
2010-04-15 07:49:30 51°19.408 2°56.517 10.3 322 8.2 102010 37
2010-04-15 07:49:35 51°19.414 2°56.542 10 287 8.2 102010 37
2010-04-15 07:49:40 51°19.419 2°56.567 11.3 323 8.2 102010 36
2010-04-15 07:49:45 51°19.425 2°56.592 9.9 280 8.2 102010 36
2010-04-15 07:49:50 51°19.43 2°56.617 10.6 324 8.2 102010 36
2010-04-15 07:49:55 51°19.436 2°56.641 11.1 280 8.2 102010 36
2010-04-15 07:50:00 51°19.441 2°56.666 11.4 321 8.2 102010 36
2010-04-15 07:50:04 51°19.445 2°56.686 11 283 8.2 102010 36
2010-04-15 07:50:10 51°19.452 2°56.715 10.5 321 8.2 102010 36
2010-04-15 07:50:15 51°19.456 2°56.74 10.8 282 8.2 102010 36
2010-04-15 07:50:20 51°19.462 2°56.764 9.8 323 8.2 102010 38
2010-04-15 07:50:24 51°19.466 2°56.784 12.4 281 8.2 102010 38
2010-04-15 07:50:30 51°19.472 2°56.814 11.2 322 8.2 102010 38
2010-04-15 07:50:35 51°19.477 2°56.838 11.3 282 8.2 102010 38
2010-04-15 07:50:40 51°19.482 2°56.863 11.7 319 8.2 102010 37
2010-04-15 07:50:45 51°19.488 2°56.887 11.5 283 8.2 102010 37
2010-04-15 07:50:50 51°19.491 2°56.912 12.5 319 8.2 102010 35
2010-04-15 07:50:55 51°19.497 2°56.936 11.3 282 8.2 102010 35
2010-04-15 07:51:00 51°19.502 2°56.961 10.7 320 8.2 102010 37
2010-04-15 07:51:05 51°19.507 2°56.985 12 286 8.2 102010 37
2010-04-15 07:51:10 51°19.512 2°57.009 11.8 323 8.2 102010 36
2010-04-15 07:51:15 51°19.518 2°57.033 10.8 280 8.2 102010 36
2010-04-15 07:51:20 51°19.521 2°57.058 11.3 321 8.2 102010 38
2010-04-15 07:51:24 51°19.527 2°57.077 11.4 279 8.2 102010 38
2010-04-15 07:51:30 51°19.532 2°57.106 12.3 320 8.2 102020 38
2010-04-15 07:51:35 51°19.538 2°57.13 10.9 283 8.2 102020 38
2010-04-15 07:51:40 51°19.542 2°57.155 11.6 319 8.2 102010 38
2010-04-15 07:51:45 51°19.548 2°57.179 11.4 280 8.2 102010 38
2010-04-15 07:51:50 51°19.553 2°57.204 11.6 322 8.2 102000 36
2010-04-15 07:51:55 51°19.558 2°57.228 11.8 283 8.2 102000 36
2010-04-15 07:52:00 51°19.563 2°57.253 9.8 323 8.2 102000 36
2010-04-15 07:52:05 51°19.569 2°57.277 12.1 282 8.2 102000 36
2010-04-15 07:52:10 51°19.574 2°57.302 11.6 322 8.2 102020 38
2010-04-15 07:52:15 51°19.579 2°57.327 11.4 277 8.2 102020 38
2010-04-15 07:52:20 51°19.584 2°57.352 10.8 321 8.2 102010 38
2010-04-15 07:52:25 51°19.59 2°57.377 10.9 278 8.2 102010 38
2010-04-15 07:52:30 51°19.595 2°57.402 11.3 324 8.2 102000 38
2010-04-15 07:52:35 51°19.6 2°57.427 10.7 278 8.2 102000 38
2010-04-15 07:52:40 51°19.605 2°57.451 12.2 321 8.2 102010 38
2010-04-15 07:52:44 51°19.61 2°57.471 12.2 283 8.2 102010 38
2010-04-15 07:52:50 51°19.616 2°57.501 12.6 321 8.2 102000 37
2010-04-15 07:52:55 51°19.621 2°57.526 12.3 280 8.2 102000 37
2010-04-15 07:53:00 51°19.627 2°57.551 12 321 8.2 102010 38
2010-04-15 07:53:04 51°19.631 2°57.571 12.1 279 8.2 102010 38
2010-04-15 07:53:10 51°19.638 2°57.602 11.8 320 8.2 102000 38
2010-04-15 07:53:15 51°19.643 2°57.627 12.1 278 8.2 102000 38
2010-04-15 07:53:20 51°19.648 2°57.653 11.7 320 8.2 102000 38
2010-04-15 07:53:24 51°19.653 2°57.673 11.7 278 8.2 102000 38
2010-04-15 07:53:30 51°19.659 2°57.704 12.4 319 8.2 102000 37
2010-04-15 07:53:35 51°19.664 2°57.729 12.1 287 8.2 102000 37
2010-04-15 07:53:40 51°19.669 2°57.755 11.2 321 8.2 101990 38
2010-04-15 07:53:45 51°19.675 2°57.78 10.7 284 8.2 101990 38
2010-04-15 07:53:51 51°19.682 2°57.81 12.4 319 8.2 102000 36
2010-04-15 07:53:55 51°19.686 2°57.831 12.1 280 8.2 102000 36
2010-04-15 07:54:00 51°19.692 2°57.856 10.8 325 8.2 102010 37
2010-04-15 07:54:05 51°19.697 2°57.882 12.2 281 8.2 102010 37
2010-04-15 07:54:11 51°19.704 2°57.912 11.5 322 8.2 102010 36
2010-04-15 07:54:15 51°19.708 2°57.933 11.8 287 8.2 102010 36
2010-04-15 07:54:20 51°19.714 2°57.958 12.2 321 8.2 102010 37
2010-04-15 07:54:25 51°19.719 2°57.983 12.6 283 8.2 102010 37
2010-04-15 07:54:30 51°19.725 2°58.008 12 321 8.2 102000 38
2010-04-15 07:54:35 51°19.731 2°58.034 11.8 285 8.2 102000 38
2010-04-15 07:54:40 51°19.736 2°58.059 12 322 8.2 102000 37
2010-04-15 07:54:45 51°19.742 2°58.084 12.1 279 8.2 102000 37
2010-04-15 07:54:51 51°19.749 2°58.114 12.3 320 8.2 102000 36
2010-04-15 07:54:55 51°19.753 2°58.134 12.5 279 8.2 102000 36
2010-04-15 07:55:00 51°19.758 2°58.159 12.3 319 8.2 102000 37
2010-04-15 07:55:05 51°19.765 2°58.184 11.4 287 8.2 102000 37
2010-04-15 07:55:10 51°19.77 2°58.209 11.1 320 8.2 101990 37
2010-04-15 07:55:15 51°19.776 2°58.234 10.8 281 8.2 101990 37
2010-04-15 07:55:20 51°19.781 2°58.26 11.8 318 8.1 101990 38
2010-04-15 07:55:25 51°19.787 2°58.284 11.7 278 8.1 101990 38
2010-04-15 07:55:30 51°19.791 2°58.311 12.4 319 8.2 102000 37
2010-04-15 07:55:35 51°19.798 2°58.335 11.3 282 8.2 102000 37
2010-04-15 07:55:40 51°19.802 2°58.36 11.6 321 8.2 102010 37
2010-04-15 07:55:44 51°19.808 2°58.38 9.9 280 8.2 102010 37
2010-04-15 07:55:50 51°19.813 2°58.41 11.6 320 8.2 102000 36
2010-04-15 07:55:55 51°19.819 2°58.436 11.2 281 8.2 102000 36
2010-04-15 07:56:00 51°19.825 2°58.461 11.6 323 8.2 102010 38
2010-04-15 07:56:05 51°19.83 2°58.485 12.2 282 8.2 102010 38
2010-04-15 07:56:10 51°19.836 2°58.51 11.9 320 8.2 102010 36
2010-04-15 07:56:15 51°19.842 2°58.535 11.5 281 8.2 102010 36
2010-04-15 07:56:20 51°19.848 2°58.56 11.1 323 8.2 102010 38
2010-04-15 07:56:25 51°19.853 2°58.585 11.7 286 8.2 102010 38
2010-04-15 07:56:30 51°19.859 2°58.61 12 324 8.2 102010 36
2010-04-15 07:56:35 51°19.864 2°58.635 11.8 287 8.2 102010 36
2010-04-15 07:56:40 51°19.869 2°58.66 11.9 324 8.2 102000 37
2010-04-15 07:56:45 51°19.874 2°58.685 12.9 283 8.2 102000 37
2010-04-15 07:56:50 51°19.88 2°58.709 11.1 321 8.2 102000 38
2010-04-15 07:56:55 51°19.885 2°58.735 11.8 286 8.2 102000 38
2010-04-15 07:57:00 51°19.891 2°58.759 11.6 322 8.2 102000 36
2010-04-15 07:57:04 51°19.894 2°58.779 10.7 284 8.2 102000 36
2010-04-15 07:57:10 51°19.902 2°58.809 12.6 323 8.2 102000 38
2010-04-15 07:57:15 51°19.907 2°58.834 11.4 284 8.2 102000 38
2010-04-15 07:57:20 51°19.912 2°58.859 12.1 321 8.2 102010 38
2010-04-15 07:57:25 51°19.917 2°58.884 12.4 279 8.2 102010 38
2010-04-15 07:57:30 51°19.923 2°58.909 11.7 323 8.2 102000 37
2010-04-15 07:57:35 51°19.928 2°58.934 12.3 282 8.2 102000 37
2010-04-15 07:57:40 51°19.933 2°58.958 12.7 322 8.2 102010 38
2010-04-15 07:57:45 51°19.938 2°58.983 11.9 282 8.2 102010 38
2010-04-15 07:57:50 51°19.944 2°59.008 11.6 323 8.2 102010 36
2010-04-15 07:57:55 51°19.949 2°59.032 11.7 281 8.2 102010 36
2010-04-15 07:58:00 51°19.955 2°59.057 12.6 320 8.2 102000 38
2010-04-15 07:58:05 51°19.961 2°59.081 11.7 278 8.2 102000 38
2010-04-15 07:58:10 51°19.966 2°59.106 11.6 321 8.2 102000 38
2010-04-15 07:58:15 51°19.973 2°59.129 10.9 279 8.2 102000 38
2010-04-15 07:58:20 51°19.977 2°59.154 11.2 321 8.2 102000 38
2010-04-15 07:58:25 51°19.983 2°59.178 11.2 281 8.2 102000 38
2010-04-15 07:58:31 51°19.99 2°59.208 10.2 324 8.2 102000 38
2010-04-15 07:58:35 51°19.994 2°59.227 10.9 285 8.2 102000 38
2010-04-15 07:58:40 51°19.999 2°59.252 11 323 8.1 102020 36
2010-04-15 07:58:45 51°20.004 2°59.276 11.2 283 8.1 102020 36
2010-04-15 07:58:50 51°20.01 2°59.3 11 323 8.2 102000 36
2010-04-15 07:58:55 51°20.014 2°59.326 11.7 282 8.2 102000 36
2010-04-15 07:59:00 51°20.019 2°59.351 11.2 324 8.2 102010 36
2010-04-15 07:59:05 51°20.025 2°59.375 12.5 282 8.2 102010 36
2010-04-15 07:59:10 51°20.031 2°59.4 11.1 320 8.2 102010 38
2010-04-15 07:59:15 51°20.036 2°59.424 9.7 283 8.2 102010 38
2010-04-15 07:59:20 51°20.041 2°59.449 10.3 322 8.2 102010 37
2010-04-15 07:59:24 51°20.046 2°59.468 10.9 283 8.2 102010 37
2010-04-15 07:59:30 51°20.052 2°59.498 11.4 321 8.2 102010 37
2010-04-15 07:59:35 51°20.058 2°59.522 12.2 284 8.2 102010 37
2010-04-15 07:59:40 51°20.062 2°59.547 12.4 322 8.2 102010 38
2010-04-15 07:59:45 51°20.068 2°59.571 11.2 278 8.2 102010 38
2010-04-15 07:59:50 51°20.073 2°59.596 12.2 322 8.2 102020 38
2010-04-15 07:59:55 51°20.079 2°59.621 11.1 280 8.2 102020 38
2010-04-15 08:00:00 51°20.083 2°59.646 11.3 322 8.2 102010 36
2010-04-15 08:00:05 51°20.089 2°59.669 10.3 284 8.2 102010 36
2010-04-15 08:00:10 51°20.094 2°59.695 10.5 322 8.2 102020 36
2010-04-15 08:00:15 51°20.1 2°59.718 11.1 282 8.2 102020 36
2010-04-15 08:00:20 51°20.105 2°59.744 11.7 321 8.2 102000 38
2010-04-15 08:00:25 51°20.11 2°59.768 11.2 287 8.2 102000 38
2010-04-15 08:00:30 51°20.115 2°59.793 11.5 322 8.2 102020 36
2010-04-15 08:00:35 51°20.12 2°59.817 12 281 8.2 102020 36
2010-04-15 08:00:40 51°20.125 2°59.842 11.4 321 8.2 102020 38
2010-04-15 08:00:45 51°20.13 2°59.867 10.9 280 8.2 102020 38
2010-04-15 08:00:51 51°20.137 2°59.897 11.2 322 8.2 102010 36
2010-04-15 08:00:55 51°20.141 2°59.917 11.1 282 8.2 102010 36
2010-04-15 08:01:00 51°20.146 2°59.942 10.5 324 8.2 102010 37
2010-04-15 08:01:05 51°20.151 2°59.966 10.8 278 8.2 102010 37
2010-04-15 08:01:10 51°20.156 2°59.991 10.8 322 8.2 102000 36
2010-04-15 08:01:15 51°20.162 3°0.016 11.9 278 8.2 102000 36
2010-04-15 08:01:20 51°20.167 3°0.041 11.2 323 8.2 102010 36
2010-04-15 08:01:25 51°20.173 3°0.065 12.3 283 8.2 102010 36
2010-04-15 08:01:30 51°20.178 3°0.09 11.9 322 8.2 102020 36
2010-04-15 08:01:35 51°20.184 3°0.114 10.7 287 8.2 102020 36
2010-04-15 08:01:40 51°20.189 3°0.139 11.1 323 8.2 102020 37
2010-04-15 08:01:45 51°20.195 3°0.164 11.5 284 8.2 102020 37
2010-04-15 08:01:50 51°20.2 3°0.189 10.9 323 8.2 102010 37
2010-04-15 08:01:55 51°20.205 3°0.214 10.8 287 8.2 102010 37
2010-04-15 08:02:00 51°20.211 3°0.239 10.7 323 8.2 102010 38
2010-04-15 08:02:05 51°20.216 3°0.263 10.4 285 8.2 102010 38
2010-04-15 08:02:10 51°20.221 3°0.288 10.9 323 8.2 102020 36
2010-04-15 08:02:15 51°20.227 3°0.313 11 281 8.2 102020 36
2010-04-15 08:02:20 51°20.232 3°0.338 11.6 323 8.2 102020 38
2010-04-15 08:02:25 51°20.237 3°0.363 11.1 281 8.2 102020 38
2010-04-15 08:02:30 51°20.243 3°0.387 11.2 322 8.2 102010 36
2010-04-15 08:02:35 51°20.249 3°0.412 11.7 285 8.2 102010 36
2010-04-15 08:02:40 51°20.254 3°0.436 10.4 323 8.2 102010 38
2010-04-15 08:02:44 51°20.259 3°0.456 10.4 286 8.2 102010 38
2010-04-15 08:02:50 51°20.265 3°0.486 10.5 323 8.2 102020 36
2010-04-15 08:02:55 51°20.27 3°0.511 11.1 283 8.2 102020 36
2010-04-15 08:03:00 51°20.276 3°0.535 11.7 322 8.2 102020 36
2010-04-15 08:03:05 51°20.282 3°0.56 11.3 281 8.2 102020 36
2010-04-15 08:03:10 51°20.287 3°0.584 11.9 321 8.2 102010 36
2010-04-15 08:03:15 51°20.293 3°0.609 10.5 281 8.2 102010 36
2010-04-15 08:03:20 51°20.299 3°0.633 10.9 322 8.2 102010 38
2010-04-15 08:03:25 51°20.305 3°0.657 11 280 8.2 102010 38
2010-04-15 08:03:30 51°20.311 3°0.682 10.1 322 8.2 102020 37
2010-04-15 08:03:35 51°20.317 3°0.707 11.2 284 8.2 102020 37
2010-04-15 08:03:40 51°20.322 3°0.732 10.9 321 8.2 102010 36
2010-04-15 08:03:45 51°20.328 3°0.757 10.4 285 8.2 102010 36
2010-04-15 08:03:50 51°20.333 3°0.782 10.7 322 8.2 102020 38
2010-04-15 08:03:55 51°20.339 3°0.807 10.2 282 8.2 102020 38
2010-04-15 08:04:00 51°20.344 3°0.831 10.3 322 8.2 102030 37
2010-04-15 08:04:05 51°20.35 3°0.856 12.2 279 8.2 102030 37
2010-04-15 08:04:10 51°20.356 3°0.881 11.3 322 8.2 102020 36
2010-04-15 08:04:15 51°20.361 3°0.905 11.9 282 8.2 102020 36
2010-04-15 08:04:20 51°20.367 3°0.931 12.2 320 8.2 102010 36
2010-04-15 08:04:25 51°20.373 3°0.955 11.8 281 8.2 102010 36
2010-04-15 08:04:30 51°20.378 3°0.98 12 321 8.2 102010 38
2010-04-15 08:04:35 51°20.384 3°1.005 11.1 282 8.2 102010 38
2010-04-15 08:04:40 51°20.39 3°1.029 11.1 321 8.2 102020 38
2010-04-15 08:04:45 51°20.395 3°1.054 12.2 287 8.2 102020 38
2010-04-15 08:04:50 51°20.4 3°1.079 10.2 321 8.2 102000 38
2010-04-15 08:04:55 51°20.406 3°1.104 11 288 8.2 102000 38
2010-04-15 08:05:00 51°20.412 3°1.129 12.1 323 8.2 102010 38
2010-04-15 08:05:04 51°20.416 3°1.149 10.5 279 8.2 102010 38
2010-04-15 08:05:10 51°20.423 3°1.179 11.1 323 8.2 102020 38
2010-04-15 08:05:15 51°20.429 3°1.203 10.8 284 8.2 102020 38
2010-04-15 08:05:20 51°20.434 3°1.228 12.4 323 8.2 102010 37
2010-04-15 08:05:25 51°20.44 3°1.253 11.5 283 8.2 102010 37
2010-04-15 08:05:30 51°20.445 3°1.278 10.6 322 8.2 102010 37
2010-04-15 08:05:35 51°20.451 3°1.302 9.9 278 8.2 102010 37
2010-04-15 08:05:40 51°20.456 3°1.326 10.2 322 8.2 102010 37
2010-04-15 08:05:45 51°20.462 3°1.351 11.1 285 8.2 102010 37
2010-04-15 08:05:50 51°20.468 3°1.375 10.9 322 8.2 102010 36
2010-04-15 08:05:55 51°20.474 3°1.4 11.3 283 8.2 102010 36
2010-04-15 08:06:00 51°20.479 3°1.425 11.1 322 8.2 102020 38
2010-04-15 08:06:05 51°20.485 3°1.45 11.7 285 8.2 102020 38
2010-04-15 08:06:10 51°20.49 3°1.475 11.2 322 8.2 102020 38
2010-04-15 08:06:15 51°20.496 3°1.499 10.5 282 8.2 102020 38
2010-04-15 08:06:20 51°20.501 3°1.524 10.6 321 8.2 102030 38
2010-04-15 08:06:25 51°20.507 3°1.548 10.9 282 8.2 102030 38
2010-04-15 08:06:30 51°20.512 3°1.573 9.7 321 8.2 102010 38
2010-04-15 08:06:35 51°20.518 3°1.598 10.4 278 8.2 102010 38
2010-04-15 08:06:40 51°20.524 3°1.622 10.5 323 8.2 102010 39
2010-04-15 08:06:45 51°20.53 3°1.647 10.7 280 8.2 102010 39
2010-04-15 08:06:50 51°20.535 3°1.672 10.1 323 8.2 102030 35
2010-04-15 08:06:55 51°20.541 3°1.696 10.4 284 8.2 102030 35
2010-04-15 08:07:00 51°20.546 3°1.722 11.3 324 8.2 102020 38
2010-04-15 08:07:05 51°20.552 3°1.746 12.1 282 8.2 102020 38
2010-04-15 08:07:10 51°20.556 3°1.771 11.8 320 8.2 102020 38
2010-04-15 08:07:15 51°20.563 3°1.796 10.1 286 8.2 102020 38
2010-04-15 08:07:20 51°20.568 3°1.821 11 322 8.2 102010 38
2010-04-15 08:07:25 51°20.576 3°1.844 11.7 282 8.2 102010 38
2010-04-15 08:07:31 51°20.583 3°1.873 12.1 324 8.2 102010 36
2010-04-15 08:07:35 51°20.59 3°1.891 11.6 281 8.2 102010 36
2010-04-15 08:07:40 51°20.596 3°1.915 11.4 323 8.3 102010 36
2010-04-15 08:07:45 51°20.605 3°1.937 11.4 280 8.3 102010 36
2010-04-15 08:07:50 51°20.612 3°1.96 11.9 325 8.2 102010 37
2010-04-15 08:07:55 51°20.62 3°1.983 11.2 281 8.2 102010 37
2010-04-15 08:08:00 51°20.629 3°2.006 11.9 323 8.2 102010 38
2010-04-15 08:08:05 51°20.637 3°2.029 11.7 278 8.2 102010 38
2010-04-15 08:08:10 51°20.646 3°2.051 11.1 326 8.2 102010 38
2010-04-15 08:08:15 51°20.653 3°2.074 11.5 284 8.2 102010 38
2010-04-15 08:08:20 51°20.662 3°2.097 11.5 325 8.2 102020 38
2010-04-15 08:08:24 51°20.668 3°2.115 12.1 280 8.2 102020 38
2010-04-15 08:08:30 51°20.678 3°2.143 12.5 323 8.2 102010 37
2010-04-15 08:08:35 51°20.685 3°2.166 11.2 283 8.2 102010 37
2010-04-15 08:08:40 51°20.694 3°2.188 12.5 323 8.2 102010 36
2010-04-15 08:08:45 51°20.702 3°2.211 10.8 281 8.2 102010 36
2010-04-15 08:08:50 51°20.71 3°2.234 10.3 324 8.2 102010 38
2010-04-15 08:08:55 51°20.718 3°2.257 11.4 279 8.2 102010 38
2010-04-15 08:09:00 51°20.726 3°2.28 12 323 8.2 102020 38
2010-04-15 08:09:05 51°20.734 3°2.303 12 279 8.2 102020 38
2010-04-15 08:09:10 51°20.743 3°2.325 10.5 324 8.2 102010 38
2010-04-15 08:09:15 51°20.751 3°2.349 12.1 284 8.2 102010 38
2010-04-15 08:09:20 51°20.758 3°2.372 13.6 322 8.2 102010 38
2010-04-15 08:09:25 51°20.767 3°2.394 10.6 284 8.2 102010 38
2010-04-15 08:09:30 51°20.775 3°2.418 12.4 322 8.2 102010 35
2010-04-15 08:09:35 51°20.783 3°2.44 10.9 282 8.2 102010 35
2010-04-15 08:09:40 51°20.791 3°2.463 10.5 321 8.2 102010 37
2010-04-15 08:09:45 51°20.799 3°2.487 11.2 279 8.2 102010 37
2010-04-15 08:09:51 51°20.809 3°2.513 11.3 324 8.2 102020 36
2010-04-15 08:09:55 51°20.815 3°2.532 11.5 284 8.2 102020 36
2010-04-15 08:10:00 51°20.824 3°2.555 11 325 8.2 102010 36
2010-04-15 08:10:05 51°20.832 3°2.578 12.1 284 8.2 102010 36
2010-04-15 08:10:10 51°20.84 3°2.601 11 326 8.3 102010 37
2010-04-15 08:10:15 51°20.848 3°2.625 11.6 286 8.3 102010 37
2010-04-15 08:10:20 51°20.856 3°2.648 11.6 323 8.2 102010 36
2010-04-15 08:10:25 51°20.864 3°2.671 11 282 8.2 102010 36
2010-04-15 08:10:30 51°20.872 3°2.694 11.7 323 8.2 102010 38
2010-04-15 08:10:35 51°20.88 3°2.717 10.9 283 8.2 102010 38
2010-04-15 08:10:40 51°20.889 3°2.74 12 323 8.3 102010 37
2010-04-15 08:10:45 51°20.897 3°2.763 11.3 280 8.3 102010 37
2010-04-15 08:10:50 51°20.905 3°2.786 11.7 323 8.3 102010 37
2010-04-15 08:10:55 51°20.914 3°2.809 10.1 280 8.3 102010 37
2010-04-15 08:11:00 51°20.922 3°2.832 11.5 323 8.3 102010 37
2010-04-15 08:11:05 51°20.93 3°2.855 11.4 280 8.3 102010 37
2010-04-15 08:11:10 51°20.938 3°2.878 11.3 323 8.2 102010 36
2010-04-15 08:11:15 51°20.946 3°2.902 11 287 8.2 102010 36
2010-04-15 08:11:20 51°20.955 3°2.925 11.4 323 8.2 102010 37
2010-04-15 08:11:25 51°20.962 3°2.949 11.7 282 8.2 102010 37
2010-04-15 08:11:30 51°20.97 3°2.972 12.4 323 8.2 102020 38
2010-04-15 08:11:35 51°20.978 3°2.996 11.5 283 8.2 102020 38
2010-04-15 08:11:40 51°20.986 3°3.018 11.8 323 8.2 102010 36
2010-04-15 08:11:44 51°20.992 3°3.037 11.3 285 8.2 102010 36
2010-04-15 08:11:50 51°21.002 3°3.065 12.1 324 8.2 102020 38
2010-04-15 08:11:55 51°21.01 3°3.088 11.4 284 8.2 102020 38
2010-04-15 08:12:00 51°21.018 3°3.112 11.2 322 8.2 102010 37
2010-04-15 08:12:05 51°21.026 3°3.135 11.2 282 8.2 102010 37
2010-04-15 08:12:10 51°21.034 3°3.158 11.3 324 8.2 102000 37
2010-04-15 08:12:15 51°21.043 3°3.181 11.5 279 8.2 102000 37
2010-04-15 08:12:20 51°21.051 3°3.205 10.2 324 8.2 102020 36
2010-04-15 08:12:25 51°21.059 3°3.228 12.3 282 8.2 102020 36
2010-04-15 08:12:30 51°21.067 3°3.251 12.1 323 8.2 102030 38
2010-04-15 08:12:35 51°21.075 3°3.274 13 287 8.2 102030 38
2010-04-15 08:12:40 51°21.084 3°3.298 12.9 324 8.2 102030 36
2010-04-15 08:12:45 51°21.092 3°3.321 12.3 285 8.2 102030 36
2010-04-15 08:12:50 51°21.1 3°3.344 12.8 323 8.2 102040 38
2010-04-15 08:12:55 51°21.109 3°3.367 11.6 286 8.2 102040 38
2010-04-15 08:13:00 51°21.117 3°3.39 11.1 326 8.2 102030 36
2010-04-15 08:13:04 51°21.123 3°3.409 13.2 283 8.2 102030 36
2010-04-15 08:13:10 51°21.134 3°3.437 11.5 324 8.2 102030 37
2010-04-15 08:13:15 51°21.142 3°3.46 12 278 8.2 102030 37
2010-04-15 08:13:20 51°21.15 3°3.483 10.4 322 8.2 102040 37
2010-04-15 08:13:24 51°21.156 3°3.502 11.4 286 8.2 102040 37
2010-04-15 08:13:30 51°21.166 3°3.53 11.7 321 8.2 102030 37
2010-04-15 08:13:35 51°21.174 3°3.553 11.8 284 8.2 102030 37
2010-04-15 08:13:40 51°21.182 3°3.577 11.9 323 8.2 102030 36
2010-04-15 08:13:45 51°21.19 3°3.6 12.9 283 8.2 102030 36
2010-04-15 08:13:51 51°21.2 3°3.629 12.7 324 8.2 102030 36
2010-04-15 08:13:55 51°21.206 3°3.648 11.5 281 8.2 102030 36
2010-04-15 08:14:00 51°21.214 3°3.671 11.9 323 8.2 102030 38
2010-04-15 08:14:05 51°21.223 3°3.694 10.5 283 8.2 102030 38
2010-04-15 08:14:10 51°21.231 3°3.717 10.9 326 8.2 102030 38
2010-04-15 08:14:15 51°21.239 3°3.741 11.4 283 8.2 102030 38
2010-04-15 08:14:20 51°21.248 3°3.763 11.1 324 8.2 102040 38
2010-04-15 08:14:25 51°21.255 3°3.787 10.9 284 8.2 102040 38
2010-04-15 08:14:30 51°21.262 3°3.811 11.1 322 8.2 102040 38
2010-04-15 08:14:35 51°21.268 3°3.836 10.7 287 8.2 102040 38
2010-04-15 08:14:40 51°21.275 3°3.861 10.7 321 8.2 102040 37
2010-04-15 08:14:45 51°21.281 3°3.886 12.9 282 8.2 102040 37
2010-04-15 08:14:51 51°21.288 3°3.917 10.6 319 8.2 102030 37
2010-04-15 08:14:55 51°21.293 3°3.936 10.4 284 8.2 102030 37
2010-04-15 08:15:00 51°21.299 3°3.962 11.6 321 8.2 102030 36
2010-04-15 08:15:05 51°21.304 3°3.987 12.2 279 8.2 102030 36
2010-04-15 08:15:10 51°21.31 3°4.013 11 320 8.2 102030 38
2010-04-15 08:15:15 51°21.315 3°4.038 10.5 281 8.2 102030 38
2010-04-15 08:15:20 51°21.32 3°4.064 10.6 320 8.2 102040 36
2010-04-15 08:15:25 51°21.325 3°4.089 10.5 283 8.2 102040 36
2010-04-15 08:15:30 51°21.33 3°4.115 10.9 319 8.2 102040 37
2010-04-15 08:15:35 51°21.334 3°4.141 11.9 282 8.2 102040 37
2010-04-15 08:15:40 51°21.339 3°4.167 11.6 318 8.2 102040 38
2010-04-15 08:15:44 51°21.342 3°4.187 11.5 278 8.2 102040 38
2010-04-15 08:15:50 51°21.348 3°4.218 11.5 320 8.2 102030 37
2010-04-15 08:15:55 51°21.352 3°4.245 11.8 280 8.2 102030 37
2010-04-15 08:16:00 51°21.357 3°4.27 10.6 320 8.2 102040 38
2010-04-15 08:16:05 51°21.361 3°4.297 11.5 280 8.2 102040 38
2010-04-15 08:16:10 51°21.365 3°4.323 11.1 317 8.2 102030 37
2010-04-15 08:16:15 51°21.369 3°4.349 10.5 278 8.2 102030 37
2010-04-15 08:16:20 51°21.374 3°4.375 11 319 8.2 102030 36
2010-04-15 08:16:25 51°21.378 3°4.401 9.9 283 8.2 102030 36
2010-04-15 08:16:30 51°21.383 3°4.427 12.6 318 8.2 102040 38
2010-04-15 08:16:35 51°21.388 3°4.452 12.3 282 8.2 102040 38
2010-04-15 08:16:40 51°21.393 3°4.478 11.3 319 8.2 102030 38
2010-04-15 08:16:45 51°21.399 3°4.503 11.9 282 8.2 102030 38
2010-04-15 08:16:50 51°21.403 3°4.528 11 320 8.2 102030 38
2010-04-15 08:16:55 51°21.409 3°4.553 10.2 282 8.2 102030 38
2010-04-15 08:17:00 51°21.414 3°4.579 11 321 8.2 102030 37
2010-04-15 08:17:05 51°21.419 3°4.604 11.9 285 8.2 102030 37
2010-04-15 08:17:11 51°21.427 3°4.634 12.9 318 8.2 102030 38
2010-04-15 08:17:15 51°21.43 3°4.655 11.3 286 8.2 102030 38
2010-04-15 08:17:20 51°21.436 3°4.679 10.1 323 8.2 102030 38
2010-04-15 08:17:25 51°21.441 3°4.704 10.8 284 8.2 102030 38
2010-04-15 08:17:30 51°21.447 3°4.729 12 319 8.2 102020 37
2010-04-15 08:17:35 51°21.452 3°4.754 11.4 278 8.2 102020 37
2010-04-15 08:17:40 51°21.457 3°4.779 11.6 319 8.2 102030 36
2010-04-15 08:17:45 51°21.463 3°4.804 11 281 8.2 102030 36
2010-04-15 08:17:50 51°21.468 3°4.829 10.8 321 8.2 102030 38
2010-04-15 08:17:55 51°21.474 3°4.854 12.2 282 8.2 102030 38
2010-04-15 08:18:00 51°21.479 3°4.879 12.1 320 8.2 102030 36
2010-04-15 08:18:05 51°21.485 3°4.904 12.1 282 8.2 102030 36
2010-04-15 08:18:11 51°21.491 3°4.935 13.1 320 8.2 102050 36
2010-04-15 08:18:15 51°21.496 3°4.954 12.3 283 8.2 102050 36
2010-04-15 08:18:20 51°21.501 3°4.98 12.2 321 8.2 102030 38
2010-04-15 08:18:25 51°21.507 3°5.004 12.3 281 8.2 102030 38
2010-04-15 08:18:30 51°21.512 3°5.03 11.6 319 8.2 102020 37
2010-04-15 08:18:35 51°21.518 3°5.054 11.7 283 8.2 102020 37
2010-04-15 08:18:40 51°21.523 3°5.08 12.5 318 8.2 102030 36
2010-04-15 08:18:45 51°21.529 3°5.104 12.1 282 8.2 102030 36
2010-04-15 08:18:50 51°21.534 3°5.13 12.4 318 8.2 102030 36
2010-04-15 08:18:55 51°21.54 3°5.155 10.9 280 8.2 102030 36
2010-04-15 08:19:00 51°21.545 3°5.18 11 323 8.2 102030 37
2010-04-15 08:19:06 51°21.552 3°5.209 10.8 282 8.2 102030 37
2010-04-15 08:19:10 51°21.556 3°5.23 12 320 8.2 102030 37
2010-04-15 08:19:15 51°21.562 3°5.255 10.3 285 8.2 102030 37
2010-04-15 08:19:20 51°21.567 3°5.28 11.8 321 8.2 102030 38
2010-04-15 08:19:25 51°21.573 3°5.304 12.4 281 8.2 102030 38
2010-04-15 08:19:30 51°21.578 3°5.33 12.3 319 8.2 102030 37
2010-04-15 08:19:35 51°21.583 3°5.354 10.8 277 8.2 102030 37
2010-04-15 08:19:40 51°21.588 3°5.379 11.8 321 8.2 102030 38
2010-04-15 08:19:45 51°21.594 3°5.404 10.6 282 8.2 102030 38
2010-04-15 08:19:50 51°21.599 3°5.429 12.5 319 8.2 102020 37
2010-04-15 08:19:55 51°21.605 3°5.454 11.9 287 8.2 102020 37
2010-04-15 08:20:00 51°21.61 3°5.479 11.4 318 8.2 102030 36
2010-04-15 08:20:05 51°21.616 3°5.504 9.9 281 8.2 102030 36
2010-04-15 08:20:10 51°21.621 3°5.529 11.8 320 8.2 102030 36
2010-04-15 08:20:15 51°21.627 3°5.553 9.8 278 8.2 102030 36
2010-04-15 08:20:20 51°21.632 3°5.578 11.7 320 8.2 102020 37
2010-04-15 08:20:25 51°21.639 3°5.603 10.5 282 8.2 102020 37
2010-04-15 08:20:31 51°21.645 3°5.634 11.6 320 8.2 102030 37
2010-04-15 08:20:35 51°21.65 3°5.653 11.3 279 8.2 102030 37
2010-04-15 08:20:40 51°21.655 3°5.679 11.5 320 8.2 102030 37
2010-04-15 08:20:45 51°21.661 3°5.703 11.9 282 8.2 102030 37
2010-04-15 08:20:50 51°21.665 3°5.729 11.5 321 8.2 102040 36
2010-04-15 08:20:55 51°21.671 3°5.754 10.6 279 8.2 102040 36
2010-04-15 08:21:00 51°21.677 3°5.779 11.4 321 8.2 102040 37
2010-04-15 08:21:05 51°21.682 3°5.804 11.8 285 8.2 102040 37
2010-04-15 08:21:10 51°21.687 3°5.83 12.1 320 8.2 102030 38
2010-04-15 08:21:15 51°21.693 3°5.855 12.1 282 8.2 102030 38
2010-04-15 08:21:20 51°21.698 3°5.88 11.4 319 8.2 102030 38
2010-04-15 08:21:25 51°21.704 3°5.905 11 284 8.2 102030 38
2010-04-15 08:21:31 51°21.711 3°5.936 11.2 320 8.2 102030 38
2010-04-15 08:21:35 51°21.715 3°5.956 12 279 8.2 102030 38
2010-04-15 08:21:40 51°21.721 3°5.981 11.2 319 8.2 102020 37
2010-04-15 08:21:45 51°21.726 3°6.006 11.8 284 8.2 102020 37
2010-04-15 08:21:50 51°21.732 3°6.032 12 319 8.2 102020 38
2010-04-15 08:21:55 51°21.738 3°6.057 11.1 285 8.2 102020 38
2010-04-15 08:22:00 51°21.743 3°6.082 10.6 320 8.2 102030 38
2010-04-15 08:22:05 51°21.749 3°6.107 10.3 287 8.2 102030 38
2010-04-15 08:22:10 51°21.754 3°6.133 10.3 322 8.2 102020 36
2010-04-15 08:22:15 51°21.76 3°6.158 12.7 278 8.2 102020 36
2010-04-15 08:22:20 51°21.765 3°6.183 11.8 321 8.2 102030 36
2010-04-15 08:22:24 51°21.769 3°6.204 12.1 287 8.2 102030 36
2010-04-15 08:22:30 51°21.776 3°6.234 10.6 320 8.2 102050 37
2010-04-15 08:22:35 51°21.782 3°6.259 13.3 281 8.2 102050 37
2010-04-15 08:22:40 51°21.787 3°6.285 11.3 319 8.2 102030 38
2010-04-15 08:22:45 51°21.793 3°6.31 12.4 281 8.2 102030 38
2010-04-15 08:22:50 51°21.798 3°6.335 12.9 321 8.2 102020 35
2010-04-15 08:22:55 51°21.804 3°6.36 10.4 282 8.2 102020 35
2010-04-15 08:23:00 51°21.81 3°6.385 12.7 321 8.2 102030 38
2010-04-15 08:23:05 51°21.815 3°6.411 11.4 287 8.2 102030 38
2010-04-15 08:23:10 51°21.822 3°6.435 12.5 320 8.2 102030 38
2010-04-15 08:23:15 51°21.827 3°6.46 11.4 280 8.2 102030 38
2010-04-15 08:23:20 51°21.833 3°6.486 10.9 319 8.2 102030 36
2010-04-15 08:23:26 51°21.84 3°6.516 12.1 284 8.2 102030 36
2010-04-15 08:23:30 51°21.844 3°6.536 12.1 320 8.2 102020 37
2010-04-15 08:23:35 51°21.85 3°6.561 11.6 280 8.2 102020 37
2010-04-15 08:23:40 51°21.855 3°6.586 11.9 318 8.2 102030 37
2010-04-15 08:23:45 51°21.861 3°6.611 11.7 281 8.2 102030 37
2010-04-15 08:23:51 51°21.868 3°6.641 11.9 321 8.2 102030 36
2010-04-15 08:23:55 51°21.873 3°6.66 10.8 280 8.2 102030 36
2010-04-15 08:24:00 51°21.879 3°6.686 11.4 322 8.2 102020 38
2010-04-15 08:24:05 51°21.885 3°6.711 11.7 280 8.2 102020 38
2010-04-15 08:24:10 51°21.891 3°6.736 13.1 318 8.2 102030 36
2010-04-15 08:24:15 51°21.897 3°6.761 12 282 8.2 102030 36
2010-04-15 08:24:20 51°21.902 3°6.787 11.5 321 8.2 102040 36
2010-04-15 08:24:25 51°21.908 3°6.812 11.4 280 8.2 102040 36
2010-04-15 08:24:30 51°21.913 3°6.837 12.4 320 8.2 102030 36
2010-04-15 08:24:35 51°21.919 3°6.862 12.1 278 8.2 102030 36
2010-04-15 08:24:40 51°21.923 3°6.888 11.9 318 8.2 102030 36
2010-04-15 08:24:45 51°21.93 3°6.913 12 282 8.2 102030 36
2010-04-15 08:24:50 51°21.935 3°6.939 10.7 318 8.2 102020 37
2010-04-15 08:24:55 51°21.941 3°6.964 11.5 282 8.2 102020 37
2010-04-15 08:25:00 51°21.946 3°6.99 12 321 8.2 102030 38
2010-04-15 08:25:05 51°21.951 3°7.015 10.7 279 8.2 102030 38
2010-04-15 08:25:10 51°21.957 3°7.041 11.1 319 8.1 102030 38
2010-04-15 08:25:15 51°21.963 3°7.066 10.7 286 8.1 102030 38
2010-04-15 08:25:20 51°21.969 3°7.092 11.3 318 8.1 102040 36
2010-04-15 08:25:25 51°21.975 3°7.117 12.6 282 8.1 102040 36
2010-04-15 08:25:30 51°21.981 3°7.143 12.3 320 8.2 102030 35
2010-04-15 08:25:35 51°21.986 3°7.169 12.6 282 8.2 102030 35
2010-04-15 08:25:40 51°21.993 3°7.194 11.7 319 8.2 102030 38
2010-04-15 08:25:46 51°21.999 3°7.225 11.3 279 8.2 102030 38
2010-04-15 08:25:50 51°22.005 3°7.245 10.9 323 8.2 102030 37
2010-04-15 08:25:55 51°22.01 3°7.271 11.3 278 8.2 102030 37
2010-04-15 08:26:00 51°22.017 3°7.296 11.6 322 8.2 102020 38
2010-04-15 08:26:05 51°22.022 3°7.322 11.3 281 8.2 102020 38
2010-04-15 08:26:10 51°22.029 3°7.347 11.7 319 8.2 102030 38
2010-04-15 08:26:15 51°22.034 3°7.373 11.7 286 8.2 102030 38
2010-04-15 08:26:20 51°22.04 3°7.398 11.3 320 8.2 102020 38
2010-04-15 08:26:25 51°22.045 3°7.423 11 282 8.2 102020 38
2010-04-15 08:26:30 51°22.05 3°7.449 11.5 322 8.2 102030 38
2010-04-15 08:26:35 51°22.056 3°7.474 11.7 279 8.2 102030 38
2010-04-15 08:26:40 51°22.062 3°7.5 11.2 321 8.2 102030 38
2010-04-15 08:26:44 51°22.066 3°7.52 12.3 282 8.2 102030 38
2010-04-15 08:26:50 51°22.073 3°7.551 10.9 320 8.2 102040 38
2010-04-15 08:26:55 51°22.079 3°7.576 11.6 284 8.2 102040 38
2010-04-15 08:27:00 51°22.085 3°7.601 11.9 320 8.2 102030 36
2010-04-15 08:27:05 51°22.09 3°7.627 12.3 286 8.2 102030 36
2010-04-15 08:27:10 51°22.096 3°7.652 11.4 319 8.2 102030 37
2010-04-15 08:27:15 51°22.101 3°7.678 11.4 283 8.2 102030 37
2010-04-15 08:27:20 51°22.108 3°7.703 11.8 319 8.1 102030 38
2010-04-15 08:27:25 51°22.113 3°7.728 12.1 282 8.1 102030 38
2010-04-15 08:27:30 51°22.12 3°7.753 11.8 321 8.2 102020 38
2010-04-15 08:27:35 51°22.124 3°7.779 11.7 279 8.2 102020 38
2010-04-15 08:27:40 51°22.131 3°7.803 12 320 8.2 102030 36
2010-04-15 08:27:45 51°22.136 3°7.829 11.9 280 8.2 102030 36
2010-04-15 08:27:50 51°22.142 3°7.854 11.7 321 8.1 102030 36
2010-04-15 08:27:55 51°22.148 3°7.879 10.8 282 8.1 102030 36
2010-04-15 08:28:00 51°22.153 3°7.905 11.6 320 8.2 102020 36
2010-04-15 08:28:05 51°22.159 3°7.93 12.1 285 8.2 102020 36
2010-04-15 08:28:11 51°22.166 3°7.96 12.9 320 8.1 102030 37
2010-04-15 08:28:15 51°22.17 3°7.98 12.3 280 8.1 102030 37
2010-04-15 08:28:20 51°22.176 3°8.006 11.5 321 8.1 102040 36
2010-04-15 08:28:25 51°22.181 3°8.031 10.3 286 8.1 102040 36
2010-04-15 08:28:30 51°22.186 3°8.057 11.7 320 8.2 102040 38
2010-04-15 08:28:35 51°22.191 3°8.082 10.7 284 8.2 102040 38
2010-04-15 08:28:40 51°22.196 3°8.109 12 319 8.2 102030 36
2010-04-15 08:28:45 51°22.2 3°8.135 11.9 284 8.2 102030 36
2010-04-15 08:28:50 51°22.204 3°8.162 12.1 317 8.2 102040 37
2010-04-15 08:28:55 51°22.208 3°8.188 11.5 280 8.2 102040 37
2010-04-15 08:29:00 51°22.21 3°8.215 11.2 316 8.2 102030 36
2010-04-15 08:29:05 51°22.213 3°8.242 11 283 8.2 102030 36
2010-04-15 08:29:10 51°22.214 3°8.268 10.4 317 8.2 102040 36
2010-04-15 08:29:15 51°22.217 3°8.295 10.4 278 8.2 102040 36
2010-04-15 08:29:20 51°22.22 3°8.322 10.6 318 8.1 102040 36
2010-04-15 08:29:25 51°22.222 3°8.349 10.9 282 8.1 102040 36
2010-04-15 08:29:30 51°22.224 3°8.376 9.8 318 8.2 102030 38
2010-04-15 08:29:35 51°22.226 3°8.403 11.4 278 8.2 102030 38
2010-04-15 08:29:40 51°22.228 3°8.43 11.7 318 8.2 102040 38
2010-04-15 08:29:45 51°22.23 3°8.457 11.4 278 8.2 102040 38
2010-04-15 08:29:50 51°22.233 3°8.485 11.8 317 8.2 102030 37
2010-04-15 08:29:55 51°22.234 3°8.512 11.9 284 8.2 102030 37
2010-04-15 08:30:00 51°22.237 3°8.539 11 318 8.2 102030 37
2010-04-15 08:30:04 51°22.238 3°8.561 13.2 282 8.2 102030 37